Terminal Aerodrome Forecast
Issued by NWS Omaha/Valley, NE

Home | Current Version | Previous Version | Graphics & Text | Print | Product List | Glossary On
Versions: 1 2 3 4 5 6 7 8 9 10 11 12 13 14 15 16 17 18 19 20 21 22 23 24 25 26 27 28 29 30 31 32 33 34 35 36 37 38 39 40 41 42 43 44
000
FTUS43 KOAX 271728
TAFOFK
TAF
KOFK 271728Z 2718/2818 13010KT P6SM SCT040
     FM271900 15014G23KT P6SM SCT150
     FM280100 15012KT P6SM SCT080 BKN150
      TEMPO 2810/2812 6SM -SHRA SCT040 BKN080
     FM281600 31014G22KT P6SM SCT150=

USA.gov is the U.S. government's official web portal to all federal, state and local government web resources and services.